Location: Muenchen
(48.1800°N, 11.5800°E)
Time: 06:17:29
(UTC+02:00)

Tiros 1 - Visible Passes

Search period start: 25 July 2016 00:00
Search period end: 04 August 2016 00:00
Orbit: 630 x 665 km, 48.4° (Epoch: 24 July)

Date Brightness Start Highest point End Pass type
(mag) Time Alt. Az. Time Alt. Az. Time Alt. Az.
25 Jul 7.1 01:09:46 10° W 01:14:24 60° SSW 01:14:24 60° SSW visible
25 Jul 7.2 22:11:32 10° W 22:16:23 88° S 22:21:14 10° E visible
25 Jul 7.1 23:53:51 10° W 23:58:42 84° SSW 00:01:04 30° ESE visible
26 Jul 8.5 01:36:13 10° W 01:38:41 26° WSW 01:38:41 26° WSW visible
26 Jul 7.2 22:37:55 10° W 22:42:46 86° N 22:47:37 10° E visible
27 Jul 7.1 00:20:13 10° W 00:24:59 63° SSW 00:25:30 59° SSE visible
27 Jul 9.6 02:02:59 10° W 02:03:08 11° W 02:03:08 11° W visible
27 Jul 7.1 23:04:18 10° W 23:09:09 86° SSW 23:12:24 21° ESE visible
28 Jul 8.1 00:46:39 10° W 00:50:02 34° WSW 00:50:02 34° WSW visible
28 Jul 7.3 21:48:22 10° W 21:53:13 86° N 21:58:04 10° E visible
28 Jul 7.2 23:30:40 10° W 23:35:27 65° SSW 23:37:00 41° SE visible
29 Jul 9.2 01:13:22 10° W 01:14:38 16° WSW 01:14:38 16° WSW visible
29 Jul 7.2 22:14:45 10° W 22:19:36 87° SSW 22:24:01 12° ESE visible
29 Jul 7.6 23:57:05 10° W 00:01:38 42° SSW 00:01:40 42° SSW visible
30 Jul 7.2 22:41:07 10° W 22:45:55 68° SSW 22:48:43 25° ESE visible
31 Jul 8.8 00:23:45 10° W 00:26:22 22° WSW 00:26:22 22° WSW visible
31 Jul 7.2 21:25:12 10° W 21:30:03 88° S 21:34:54 10° E visible
31 Jul 7.7 23:07:32 10° W 23:12:07 44° SSW 23:13:28 35° SSE visible
01 Aug 7.3 21:51:34 10° W 21:56:23 70° SSW 22:00:37 13° ESE visible
01 Aug 8.4 23:34:09 10° W 23:38:08 26° SW 23:38:16 26° SW visible
02 Aug 7.7 22:17:58 10° W 22:22:35 46° SSW 22:25:27 21° SE visible
03 Aug 9.4 00:01:37 10° WSW 00:03:06 13° WSW 00:03:06 13° WSW visible
03 Aug 8.5 22:44:34 10° W 22:48:38 27° SW 22:50:21 22° S visible
